Back to catalog

STARLINK-11692

AliveCommunicationsVLEO
NORAD 64381·PAYLOAD·🇺🇸 United States

Launched Jun 13, 2025 from Cape Canaveral Space Force Station

Loading…

Next Passes (next 24 hours)

TLE

FreshSource: CelesTrak SupGP

Epoch: Sep 14, 2026, 14:58 UTC

1 64381C 25127M   26257.62409722 -.00005216  00000+0 -40541-4 0  2573
2 64381  43.0007  25.6093 0001624 281.7545 230.9706 15.70822068    15

Track STARLINK-11692 in real time with AllMySat

Download on the App Store